Station MCYI3 - Michigan City Harbor Entrance Light, Michigan City, IN Image indicating link to RSS feed of recent meteorological observations for station MCYI3


Conditions at MCYI3 as of
(11:20 am CDT)
1620 GMT on 05/28/2024:
     

Click on the graph icon in the table below to see a time series plot of the last five days of that observation.

5-day plot - Wind Direction Wind Direction (WDIR): NW ( 310 deg true )
5-day plot - Wind Speed Wind Speed (WSPD): 1 kts
5-day plot - Wind Gust Wind Gust (GST): 2 kts
5-day plot - Atmospheric Pressure Atmospheric Pressure (PRES):29.94 in
5-day plot - Air Temperature Air Temperature (ATMP): 60.8 °F
5-day plot - Dew Point Dew Point (DEWP): 55.2 °F
5-day plot -  Wind Speed, Wind Gust and Atmospheric Pressure Combined plot of Wind Speed, Gust, and Air Pressure
Previous observations
TIME
(CDT)
5-day plot - Wind Direction
WDIR
 
5-day plot - Wind Speed
WSPD
kts
5-day plot - Wind Gust
GST
kts
5-day plot - Wave Height
WVHT
ft
5-day plot - Dominant Wave Period
DPD
sec
5-day plot - Average Wave Period
APD
sec
5-day plot - Mean Wave Direction
MWD
 
5-day plot - Atmospheric Pressure
PRES
in
5-day plot - Pressure Tendency
PTDY
in
5-day plot - Air Temperature
ATMP
°F
5-day plot - Water Temperature
WTMP
°F
5-day plot - Dew Point
DEWP
°F
5-day plot - Salinity
SAL
psu
5-day plot - Visibility
VIS
nmi
5-day plot - Tide (above MLLW)
TIDE
ft
2024-05-28 11:10 am NW 2 2----29.95- 61.0- 55.2---
2024-05-28 11:00 amWNW 2 3----29.94+0.01 61.7- 54.9---
2024-05-28 10:50 amWNW 2 3----29.94- 61.5- 55.0---
2024-05-28 10:40 amNNW 2 3----29.95- 62.2- 55.2---
2024-05-28 10:30 amNNW 1 2----29.95- 61.0- 54.9---
2024-05-28 10:20 amWNW 1 2----29.94- 61.0- 54.7---
2024-05-28 10:10 amWNW 2 2----29.95- 60.8- 54.7---
2024-05-28 10:00 amWNW 2 3----29.94+0.02 61.3- 54.5---
2024-05-28 09:50 amNNW 2 3----29.93- 61.2- 54.9---
2024-05-28 09:40 am NW 1 2----29.94- 61.5- 54.5---
2024-05-28 09:30 am NW 3 4----29.94- 61.5- 54.5---
2024-05-28 09:20 am N 3 4----29.94- 60.8- 54.9---
2024-05-28 09:10 am N 4 5----29.94- 60.8- 54.9---
2024-05-28 09:00 am N 4 4----29.93+0.04 60.8- 54.7---
2024-05-28 08:50 amNNW 4 4----29.93- 61.7- 55.0---
2024-05-28 08:40 amNNW 1 2----29.93- 61.7- 55.2---
2024-05-28 08:30 am NW 3 3----29.94- 60.8- 55.2---
2024-05-28 08:20 am NW 4 5----29.94- 59.0- 55.2---
2024-05-28 08:10 amNNW 5 6----29.94- 58.8- 55.0---
2024-05-28 08:00 amNNW 6 6----29.93+0.05 59.0- 55.0---
2024-05-28 07:50 amNNW 6 7----29.93- 59.7- 54.9---
2024-05-28 07:40 am N 6 6----29.93- 59.7- 55.2---
2024-05-28 07:30 am N 5 6----29.93- 58.8- 55.0---
2024-05-28 07:20 am N 7 8----29.93- 57.6- 54.9---
2024-05-28 07:10 am N 7 7----29.93- 57.9- 55.2---
2024-05-28 07:00 am N 7 7----29.92+0.06 57.7- 54.9---
2024-05-28 06:50 am N 7 8----29.91- 57.4- 55.0---
2024-05-28 06:40 am N 8 8----29.91- 57.7- 55.2---
2024-05-28 06:30 am N 7 8----29.91- 58.6- 55.2---
2024-05-28 06:20 am N 5 5----29.90- 59.0- 55.8---
2024-05-28 06:10 amNNW 5 6----29.91- 57.9- 55.6---
2024-05-28 06:00 amNNW 7 8----29.90+0.05 57.7- 55.4---
2024-05-28 05:50 amNNW 7 8----29.89- 57.7- 55.6---
2024-05-28 05:40 amNNW 7 8----29.89- 57.7- 55.4---
2024-05-28 05:30 amNNW 8 9----29.88- 57.7- 55.6---
2024-05-28 05:20 am NW 6 7----29.88- 57.9- 55.8---
2024-05-28 05:10 amWNW 5 5----29.88- 57.9- 55.8---
2024-05-28 05:00 am W 3 3----29.88+0.05 57.9- 55.9---
2024-05-28 04:50 amWNW 3 3----29.88- 58.1- 55.9---
2024-05-28 04:40 am W 1 2----29.88- 58.1- 56.5---
2024-05-28 04:30 amNNW 2 2----29.88- 58.1- 56.3---
2024-05-28 04:20 amNNE 2 2----29.87- 58.1- 56.5---
2024-05-28 04:10 am N 3 3----29.86- 58.3- 56.3---
2024-05-28 04:00 amNNW 5 5----29.86+0.03 58.5- 56.1---
2024-05-28 03:50 am NW 6 7----29.86- 58.3- 56.5---
2024-05-28 03:40 amNNW 7 8----29.85- 58.5- 56.3---
2024-05-28 03:30 amNNW 7 8----29.85- 58.5- 56.1---
2024-05-28 03:20 am W 3 4----29.84- 58.6- 55.8---
2024-05-28 03:10 amWSW 4 4----29.84- 58.5- 55.4---
2024-05-28 03:00 amWSW 3 4----29.84+0.01 58.3- 55.4---
2024-05-28 02:50 amWSW 2 2----29.84- 58.1- 55.2---
2024-05-28 02:40 amWSW 2 3----29.83- 57.7- 55.0---
2024-05-28 02:30 amSSW 3 4----29.83- 57.7- 54.9---
2024-05-28 02:20 amSSW 7 8----29.83- 57.9- 54.7---
2024-05-28 02:10 am S 8 9----29.83- 57.9- 54.7---
2024-05-28 02:00 am S 6 7----29.83-0.01 57.7- 55.0---
2024-05-28 01:50 am S 7 8----29.83- 57.6- 55.0---
2024-05-28 01:40 am S 6 6----29.84- 57.4- 55.2---
2024-05-28 01:30 amSSW 5 5----29.83- 57.7- 55.6---
2024-05-28 01:20 amSSW 5 5----29.83- 57.9- 55.6---
2024-05-28 01:10 am SW 5 6----29.84- 58.1- 55.8---
2024-05-28 01:00 amSSW 4 4----29.83+0.00 58.1- 55.6---
2024-05-28 12:50 amSSW 6 6----29.83- 57.6- 55.6---
2024-05-28 12:40 amSSW 6 7----29.84- 57.6- 55.4---
2024-05-28 12:30 amSSW 4 4----29.83- 57.9- 55.8---
2024-05-28 12:20 amSSW 5 5----29.84- 57.9- 55.9---
2024-05-28 12:10 amSSW 2 3----29.83- 57.6- 55.9---
2024-05-28 12:00 am S 5 6----29.83+0.00 57.9- 55.8---
2024-05-27 11:50 pm S 4 5----29.83- 57.6- 55.9---
2024-05-27 11:40 pm S 5 6----29.83- 58.3- 56.5---
2024-05-27 11:30 pm S 5 5----29.83- 58.8- 56.3---
2024-05-27 11:20 pm S 4 4----29.83- 58.6- 57.0---
2024-05-27 11:10 pmSSW 5 6----29.83- 58.6- 57.4---
2024-05-27 11:00 pm S 2 3----29.83+0.03 59.0- 57.6---
2024-05-27 10:50 pm- 0 0----29.83- 59.0- 57.6---
2024-05-27 10:40 pm- 0 1----29.83- 58.8- 57.2---
2024-05-27 10:30 pm N 1 2----29.83- 59.0- 57.2---
2024-05-27 10:20 pm NE 2 2----29.83- 59.2- 57.0---
2024-05-27 10:10 pm S 2 3----29.83- 58.8- 56.3---
2024-05-27 10:00 pm S 9 10----29.84+0.08 58.6- 56.5---
2024-05-27 09:50 pm S 4 5----29.83- 59.4- 56.5---
2024-05-27 09:40 pm NE 3 4----29.82- 59.5- 55.2---
2024-05-27 09:30 pm NE 2 3----29.82- 59.2- 55.8---
2024-05-27 09:20 pm E 3 4----29.82- 58.8- 55.8---
2024-05-27 09:10 pm NE 3 4----29.83- 58.5- 56.1---
2024-05-27 09:00 pm N 3 4----29.83+0.09 58.6- 56.1---
2024-05-27 08:50 pm W 2 3----29.82- 58.8- 55.6---
2024-05-27 08:40 pm NE 6 7----29.82- 58.3- 55.8---
2024-05-27 08:30 pmNNE 7 8----29.80- 58.3- 55.6---
2024-05-27 08:20 pm N 4 6----29.81- 58.3- 56.1---
2024-05-27 08:10 pmWNW 9 11----29.82- 58.6- 55.6---
2024-05-27 08:00 pmNNW 7 9----29.81+0.08 59.7- 55.9---
2024-05-27 07:50 pmNNE 7 7----29.79- 60.4- 54.7---
2024-05-27 07:40 pmNNE 6 6----29.78- 60.8- 54.5---
2024-05-27 07:30 pm N 3 4----29.78- 61.7- 54.7---
2024-05-27 07:20 pm N 4 4----29.78- 61.5- 54.9---
2024-05-27 07:10 pm N 5 5----29.78- 61.5- 55.2---
2024-05-27 07:00 pm N 5 7----29.76+0.02 62.8- 54.7---
2024-05-27 06:50 pm N 5 7----29.75- 63.3- 54.5---
2024-05-27 06:40 pmWNW 2 2----29.75- 63.9- 54.1---
2024-05-27 06:30 pmWNW 3 4----29.75- 64.0- 54.0---
2024-05-27 06:20 pmWNW 3 5----29.75- 64.0- 54.0---
2024-05-27 06:10 pm W 2 4----29.75- 63.3- 54.0---
2024-05-27 06:00 pmWSW 2 3----29.74+0.01 63.5- 54.0---
2024-05-27 05:50 pm W 3 4----29.74- 63.7- 53.6---
2024-05-27 05:40 pmWSW 4 4----29.74- 63.9- 53.4---
2024-05-27 05:30 pmWSW 4 4----29.73- 63.5- 53.8---
2024-05-27 05:20 pm SW 6 6----29.73- 63.7- 53.6---
2024-05-27 05:10 pmWSW 5 6----29.74- 63.9- 53.6---
2024-05-27 05:00 pmWSW 5 5----29.73+0.02 63.7- 53.4---
2024-05-27 04:50 pmWSW 6 7----29.73- 64.2- 53.1---
2024-05-27 04:40 pm W 6 6----29.73- 64.6- 52.9---
2024-05-27 04:30 pm SW 7 8----29.74- 63.7- 52.9---
2024-05-27 04:20 pm SW 7 7----29.74- 63.7- 52.5---
2024-05-27 04:10 pm SW 7 7----29.73- 63.3- 53.1---
2024-05-27 04:00 pm SW 7 7----29.74+0.05 63.1- 52.7---
2024-05-27 03:50 pm SW 7 7----29.73- 62.4- 53.2---
2024-05-27 03:40 pm SW 8 8----29.74- 62.2- 54.1---
2024-05-27 03:30 pm SW 9 9----29.73- 61.9- 54.0---
2024-05-27 03:20 pm SW 10 10----29.72- 61.9- 54.0---
2024-05-27 03:10 pm SW 10 10----29.73- 61.5- 54.7---
2024-05-27 03:00 pm SW 9 11----29.72+0.05 61.2- 55.0---
2024-05-27 02:50 pm SW 9 10----29.72- 61.0- 54.9---
2024-05-27 02:40 pmWSW 10 10----29.72- 61.0- 54.9---
2024-05-27 02:30 pmWSW 9 9----29.71- 60.6- 55.0---
2024-05-27 02:20 pmWSW 10 11----29.71- 60.8- 54.7---
2024-05-27 02:10 pmWSW 11 12----29.71- 60.8- 54.7---
2024-05-27 02:00 pmWSW 12 14----29.70+0.06 60.8- 54.5---
2024-05-27 01:50 pmWSW 14 15----29.70- 60.6- 54.7---
2024-05-27 01:40 pmWSW 14 15----29.70- 60.3- 54.7---
2024-05-27 01:30 pmWSW 14 15----29.70- 60.4- 54.5---
2024-05-27 01:20 pmWSW 16 17----29.69- 60.4- 54.5---
2024-05-27 01:10 pmWSW 17 18----29.69- 60.3- 54.5---
2024-05-27 01:00 pmWSW 16 18----29.69+0.09 60.1- 54.7---
2024-05-27 12:50 pmWSW 17 18----29.69- 60.1- 54.3---
2024-05-27 12:40 pmWSW 15 17----29.68- 60.1- 54.5---
2024-05-27 12:30 pmWSW 16 17----29.68- 59.7- 54.5---
2024-05-27 12:20 pmWSW 16 17----29.68- 59.7- 54.5---
2024-05-27 12:10 pmWSW 16 17----29.68- 59.7- 54.7---
2024-05-27 12:00 pmWSW 17 18----29.67+0.11 59.5- 54.3---
2024-05-27 11:50 amWSW 14 15----29.67- 59.4- 54.5---
2024-05-27 11:40 amWSW 18 20----29.67- 59.9- 53.4---
2024-05-27 11:30 am W 18 20----29.67- 59.5- 54.0---
2024-05-27 11:20 amWSW 19 21----29.66- 59.5- 54.1---
2024-05-27 11:10 am W 18 20----29.65- 59.4- 54.5---
2024-05-27 11:00 am W 17 19----29.65+0.10 59.4- 54.5---
2024-05-27 10:50 am W 20 23----29.63- 59.4- 54.5---